Weather History for Hill City, KS

Change the Weather History Date:

Monday, November 7, 2011

  Actual Average Record
Temperature  
Mean Temperature 35 °F 45 °F  
Max Temperature 45 °F 58 °F 83 °F (2010)
Min Temperature 25 °F 31 °F 8 °F (1991)
Degree Days  
Heating Degree Days 30    
Moisture  
Dew Point 32 °F    
Average Humidity 81    
Maximum Humidity 96    
Minimum Humidity 62    
Precipitation  
Precipitation 0.01 in 0.03 in 0.46 in (1998)
Month to date precipitation 0.23 0.31  
Year to date precipitation 19.30 21.59  
Sea Level Pressure  
Sea Level Pressure 30.09 in    
Wind  
Wind Speed 7 mph (NE)    
Max Wind Speed 16 mph    
Max Gust Speed 24 mph    
Visibility 8 miles    
Events Rain    
T = Trace of Precipitation, MM = Missing Value Source: NWS Daily Summary

Daily Weather History Graph

Daily Weather History Graph

Search for Another Location

Airport:

Trip Planner

Search our weather history database for the weather conditions in past years. The results will help you decide how hot, cold, wet, or windy it might be!

Date:

Astronomy

Nov. 07, 2011 Rise Set
Actual Time 7:13 AM CST 5:31 PM CST
Civil Twilight 6:45 AM CST 5:59 PM CST
Nautical Twilight 6:13 AM CST 6:31 PM CST
Astronomical Twilight 5:42 AM CST 7:03 PM CST
Moon 3:43 PM CST (11/7) 4:18 AM CST (11/7)
Length of Visible Light 11h 14m
Length of Day
10h 17m
Waxing Gibbous, 92% of the Moon is Illuminated
Nov 7
Waxing Gibbous
Nov 10
Full
Nov 18
Last Quarter
Nov 25
New
Dec 2
First Quarter

Hourly Weather History & Observations

Time (CST) Temp. Windchill Dew Point Humidity Pressure Visibility Wind Dir Wind Speed Gust Speed Precip Events Conditions
12:53 AM 27.0 °F - 21.0 °F 78% 30.09 in 10.0 mi Calm Calm - N/A   Clear
1:53 AM 25.0 °F 20.7 °F 21.0 °F 85% 30.09 in 10.0 mi West 3.5 mph - N/A   Clear
2:53 AM 25.0 °F 20.7 °F 19.9 °F 81% 30.11 in 10.0 mi WSW 3.5 mph - N/A   Clear
3:53 AM 26.1 °F 21.9 °F 21.0 °F 81% 30.11 in 10.0 mi North 3.5 mph - N/A   Clear
4:53 AM 28.0 °F 22.8 °F 23.0 °F 81% 30.12 in 10.0 mi North 4.6 mph - N/A   Clear
5:53 AM 26.1 °F - 21.9 °F 84% 30.14 in 10.0 mi Calm Calm - N/A   Overcast
6:53 AM 26.1 °F 21.9 °F 23.0 °F 88% 30.15 in 10.0 mi WSW 3.5 mph - N/A   Partly Cloudy
7:53 AM 30.0 °F - 26.1 °F 85% 30.19 in 10.0 mi Calm Calm - N/A   Overcast
9:53 AM 41.0 °F 37.1 °F 28.9 °F 62% 30.19 in 10.0 mi East 5.8 mph - 0.00 in   Overcast
11:53 AM 41.0 °F 34.3 °F 33.1 °F 73% 30.14 in 7.0 mi ENE 11.5 mph - 0.01 in Rain Light Rain
12:53 PM 44.1 °F 37.4 °F 36.0 °F 73% 30.10 in 10.0 mi East 13.8 mph 19.6 mph 0.00 in   Mostly Cloudy
1:53 PM 45.0 °F 37.9 °F 34.0 °F 65% 30.06 in 10.0 mi East 16.1 mph - N/A   Mostly Cloudy
2:53 PM 43.0 °F 35.7 °F 35.1 °F 74% 30.06 in 10.0 mi East 15.0 mph 24.2 mph N/A   Overcast
3:14 PM 42.8 °F 35.1 °F 35.6 °F 76% 30.02 in 10.0 mi ENE 16.1 mph - N/A   Mostly Cloudy
3:53 PM 43.0 °F 36.4 °F 36.0 °F 76% 30.06 in 10.0 mi ENE 12.7 mph 20.7 mph N/A   Overcast
4:30 PM 42.8 °F 35.4 °F 35.6 °F 76% 30.02 in 10.0 mi ENE 15.0 mph - N/A   Overcast
4:53 PM 43.0 °F 35.7 °F 36.0 °F 76% 30.07 in 10.0 mi ENE 15.0 mph - N/A   Overcast
5:53 PM 43.0 °F 36.8 °F 37.0 °F 80% 30.08 in 10.0 mi ENE 11.5 mph - N/A   Overcast
6:53 PM 43.0 °F 36.4 °F 37.9 °F 82% 30.10 in 10.0 mi NE 12.7 mph - N/A   Overcast
7:53 PM 43.0 °F 35.7 °F 37.0 °F 80% 30.10 in 10.0 mi NE 15.0 mph - N/A   Overcast
8:53 PM 42.1 °F 35.7 °F 37.9 °F 85% 30.10 in 10.0 mi NE 11.5 mph - N/A   Overcast
9:53 PM 42.1 °F 34.9 °F 39.0 °F 89% 30.09 in 5.0 mi NE 13.8 mph - N/A   Overcast
10:26 PM 41.0 °F 34.7 °F 39.2 °F 93% 30.06 in 3.0 mi NNE 10.4 mph - 0.00 in Rain Light Rain
10:36 PM 41.0 °F 34.7 °F 39.2 °F 93% 30.05 in 2.5 mi NNE 10.4 mph - 0.00 in Rain Light Rain
10:49 PM 41.0 °F 34.7 °F 39.2 °F 93% 30.05 in 3.0 mi NNE 10.4 mph - 0.00 in Rain Light Rain
10:53 PM 41.0 °F 34.7 °F 39.9 °F 96% 30.08 in 3.0 mi NNE 10.4 mph - 0.00 in Rain Light Rain
11:53 PM 41.0 °F 33.9 °F 39.0 °F 93% 30.09 in 3.0 mi NE 12.7 mph - 0.00 in   Overcast